Satellite: RS-38 Catalog number: 35869 Epoch time: 11251.74202438 Element set: 690 Inclination: 098.6943 deg RA of node: 305.7827 deg Eccentricity: 0.0004711 Arg of perigee: 138.8547 deg Mean anomaly: 221.2936 deg Mean motion: 14.22020656 rev/day Decay rate: 1.77e-06 rev/day^2 Epoch rev: 10247 Checksum: 309
Satellite: ARISSAT1 Catalog number: 37772 Epoch time: 11251.65163028 Element set: 110 Inclination: 051.6382 deg RA of node: 100.4016 deg Eccentricity: 0.0012051 Arg of perigee: 176.5714 deg Mean anomaly: 289.5955 deg Mean motion: 15.62539337 rev/day Decay rate: 3.9814e-04 rev/day^2 Epoch rev: 552 Checksum: 278
/EX
participants (1)
-
Ray Hoad